Location: Cheyres
(46.8153°N, 6.7877°E)
Time: 15:15:06
(UTC+00:00)

FENGYUN 1C DEB - Visible Passes

Search period start: 28 November 2021 00:00
Search period end: 08 December 2021 00:00
Orbit: 842 x 916 km, 99.0° (Epoch: 27 November)

Date Brightness Start Highest point End Pass type
(mag) Time Alt. Az. Time Alt. Az. Time Alt. Az.
28 Nov ? 17:06:31 14° NE 17:06:31 14° NE 17:08:25 10° NNE visible
28 Nov ? 18:49:08 28° N 18:49:08 28° N 18:51:36 10° NNW visible
29 Nov ? 17:02:59 13° NE 17:02:59 13° NE 17:04:37 10° NNE visible
29 Nov ? 18:45:35 27° N 18:45:35 27° N 18:48:00 10° N visible
30 Nov ? 16:59:26 12° NE 16:59:26 12° NE 17:00:47 10° NNE visible
30 Nov ? 18:42:03 26° N 18:42:03 26° N 18:44:23 10° N visible
30 Nov ? 20:24:39 10° NW 20:24:39 10° NW 20:24:39 10° NW visible
01 Dec ? 16:55:53 11° NE 16:55:53 11° NE 16:56:53 10° NNE visible
01 Dec ? 18:38:30 25° N 18:38:30 25° N 18:40:47 10° N visible
01 Dec ? 20:21:06 10° NW 20:21:06 10° NW 20:21:11 10° NW visible
02 Dec ? 16:52:21 11° NE 16:52:21 11° NE 16:52:54 10° NE visible
02 Dec ? 18:34:56 25° N 18:34:56 25° N 18:37:10 10° N visible
02 Dec ? 20:17:32 11° NW 20:17:32 11° NW 20:17:43 10° NW visible
03 Dec ? 18:31:23 24° N 18:31:23 24° N 18:33:33 10° N visible
03 Dec ? 20:13:59 11° NW 20:13:59 11° NW 20:14:12 10° NW visible
04 Dec ? 18:27:49 23° N 18:27:49 23° N 18:29:56 10° N visible
04 Dec ? 20:10:25 11° NW 20:10:25 11° NW 20:10:42 10° NW visible
05 Dec ? 18:24:15 23° N 18:24:15 23° N 18:26:19 10° N visible
05 Dec ? 20:06:51 12° NW 20:06:51 12° NW 20:07:12 10° NW visible
06 Dec ? 18:20:40 22° N 18:20:40 22° N 18:22:41 10° N visible
06 Dec ? 20:03:16 12° NW 20:03:16 12° NW 20:03:41 10° NW visible
07 Dec ? 18:17:05 22° N 18:17:05 22° N 18:19:03 10° N visible
07 Dec ? 19:59:41 12° NW 19:59:41 12° NW 20:00:10 10° NNW visible
